Time,TemperatureF,DewpointF,PressureIn,WindDirection,WindDirectionDegrees,WindSpeedMPH,WindSpeedGustMPH,Humidity,HourlyPrecipIn,Conditions,Clouds,dailyrainin,SoftwareType,DateUTC
2013-01-20 00:01:00,32.0,18.1,30.15,SW,225,1.5,2.0,56,0.00,,,0.00,WUHU216TE923,2013-01-20 08:01:00,
2013-01-20 00:06:00,32.0,17.7,30.15,WSW,248,1.5,1.6,55,0.00,,,0.00,WUHU216TE923,2013-01-20 08:06:00,
2013-01-20 00:11:00,32.0,17.7,30.15,WSW,248,1.5,1.6,55,0.00,,,0.00,WUHU216TE923,2013-01-20 08:11:00,
2013-01-20 00:16:00,32.0,17.7,30.15,WSW,248,1.5,1.6,55,0.00,,,0.00,WUHU216TE923,2013-01-20 08:16:00,
2013-01-20 00:21:00,32.0,17.7,30.15,WSW,248,1.1,1.9,55,0.00,,,0.00,WUHU216TE923,2013-01-20 08:21:00,
2013-01-20 00:26:00,32.0,17.7,30.16,SW,225,1.8,2.2,55,0.00,,,0.00,WUHU216TE923,2013-01-20 08:26:00,
2013-01-20 00:31:00,32.2,17.8,30.16,SW,225,2.1,2.8,55,0.00,,,0.00,WUHU216TE923,2013-01-20 08:31:00,
2013-01-20 00:36:00,32.5,17.7,30.16,WSW,248,2.3,2.8,54,0.00,,,0.00,WUHU216TE923,2013-01-20 08:36:00,
2013-01-20 00:41:00,32.9,18.1,30.16,SW,225,2.5,3.6,54,0.00,,,0.00,WUHU216TE923,2013-01-20 08:41:00,
2013-01-20 00:46:00,33.3,18.0,30.15,West,270,2.4,3.6,53,0.00,,,0.00,WUHU216TE923,2013-01-20 08:46:00,
2013-01-20 00:51:00,33.3,18.0,30.15,WSW,248,2.3,2.4,53,0.00,,,0.00,WUHU216TE923,2013-01-20 08:51:00,
2013-01-20 00:56:00,33.3,17.5,30.15,South,180,2.6,4.8,52,0.00,,,0.00,WUHU216TE923,2013-01-20 08:56:00,
2013-01-20 01:01:00,33.3,17.5,30.15,WSW,248,2.6,4.8,52,0.00,,,0.00,WUHU216TE923,2013-01-20 09:01:00,
2013-01-20 01:06:00,33.3,17.5,30.16,SW,225,2.5,2.6,52,0.00,,,0.00,WUHU216TE923,2013-01-20 09:06:00,
2013-01-20 01:11:00,33.3,17.5,30.16,SW,225,2.5,4.1,52,0.00,,,0.00,WUHU216TE923,2013-01-20 09:11:00,
2013-01-20 01:16:00,33.3,17.5,30.16,SW,225,2.6,4.1,52,0.00,,,0.00,WUHU216TE923,2013-01-20 09:16:00,
2013-01-20 01:21:00,33.3,17.5,30.16,SW,225,2.9,4.0,52,0.00,,,0.00,WUHU216TE923,2013-01-20 09:21:00,
2013-01-20 01:26:00,33.3,17.1,30.15,SSW,203,3.4,5.0,51,0.00,,,0.00,WUHU216TE923,2013-01-20 09:26:00,
2013-01-20 01:31:00,33.3,17.1,30.15,SW,225,3.6,5.0,51,0.00,,,0.00,WUHU216TE923,2013-01-20 09:31:00,
2013-01-20 01:36:00,33.3,17.1,30.15,SSW,203,3.8,5.5,51,0.00,,,0.00,WUHU216TE923,2013-01-20 09:36:00,
2013-01-20 01:41:00,33.3,17.1,30.15,SW,225,3.8,5.5,51,0.00,,,0.00,WUHU216TE923,2013-01-20 09:41:00,
2013-01-20 01:46:00,33.4,17.2,30.15,WSW,248,3.4,4.9,51,0.00,,,0.00,WUHU216TE923,2013-01-20 09:46:00,
2013-01-20 01:51:00,33.4,17.2,30.15,WSW,248,3.1,3.4,51,0.00,,,0.00,WUHU216TE923,2013-01-20 09:51:00,
2013-01-20 01:56:00,33.8,17.5,30.15,WSW,248,3.2,5.7,51,0.00,,,0.00,WUHU216TE923,2013-01-20 09:56:00,
2013-01-20 02:01:00,33.8,17.5,30.15,South,180,3.2,5.7,51,0.00,,,0.00,WUHU216TE923,2013-01-20 10:01:00,
2013-01-20 02:06:00,33.8,17.5,30.15,WSW,248,3.4,5.4,51,0.00,,,0.00,WUHU216TE923,2013-01-20 10:06:00,
2013-01-20 02:11:00,33.8,17.5,30.15,South,180,3.4,5.4,51,0.00,,,0.00,WUHU216TE923,2013-01-20 10:11:00,
2013-01-20 02:16:00,33.8,17.5,30.15,WSW,248,3.2,3.7,51,0.00,,,0.00,WUHU216TE923,2013-01-20 10:16:00,
2013-01-20 02:21:00,33.8,17.5,30.15,WSW,248,2.9,3.9,51,0.00,,,0.00,WUHU216TE923,2013-01-20 10:21:00,
2013-01-20 02:26:00,33.8,17.5,30.15,WSW,248,2.7,3.9,51,0.00,,,0.00,WUHU216TE923,2013-01-20 10:26:00,
2013-01-20 02:31:00,33.6,17.8,30.15,WSW,248,2.4,2.8,52,0.00,,,0.00,WUHU216TE923,2013-01-20 10:31:00,
2013-01-20 02:36:00,33.4,17.6,30.15,SSW,203,2.1,2.4,52,0.00,,,0.00,WUHU216TE923,2013-01-20 10:36:00,
2013-01-20 02:41:00,33.1,17.3,30.15,West,270,1.7,2.2,52,0.00,,,0.00,WUHU216TE923,2013-01-20 10:41:00,
2013-01-20 02:46:00,32.9,17.2,30.16,SW,225,1.2,3.0,52,0.00,,,0.00,WUHU216TE923,2013-01-20 10:46:00,
2013-01-20 02:51:00,33.1,17.8,30.16,SW,225,1.5,3.1,53,0.00,,,0.00,WUHU216TE923,2013-01-20 10:51:00,
2013-01-20 02:56:00,33.1,17.8,30.16,West,270,2.2,3.1,53,0.00,,,0.00,WUHU216TE923,2013-01-20 10:56:00,
2013-01-20 03:01:00,32.9,17.6,30.16,West,270,2.0,2.2,53,0.00,,,0.00,WUHU216TE923,2013-01-20 11:01:00,
2013-01-20 03:06:00,33.1,17.3,30.16,WSW,248,1.8,3.0,52,0.00,,,0.00,WUHU216TE923,2013-01-20 11:06:00,
2013-01-20 03:11:00,33.3,17.5,30.16,SW,225,1.8,3.0,52,0.00,,,0.00,WUHU216TE923,2013-01-20 11:11:00,
2013-01-20 03:16:00,33.3,17.5,30.16,SW,225,1.8,2.4,52,0.00,,,0.00,WUHU216TE923,2013-01-20 11:16:00,
2013-01-20 03:21:00,33.1,17.3,30.16,SW,225,1.8,2.4,52,0.00,,,0.00,WUHU216TE923,2013-01-20 11:21:00,
2013-01-20 03:26:00,32.9,17.2,30.15,South,180,1.3,2.3,52,0.00,,,0.00,WUHU216TE923,2013-01-20 11:26:00,
2013-01-20 03:31:00,32.9,17.2,30.15,South,180,1.3,2.3,52,0.00,,,0.00,WUHU216TE923,2013-01-20 11:31:00,
2013-01-20 03:36:00,32.9,17.2,30.15,SW,225,2.7,3.1,52,0.00,,,0.00,WUHU216TE923,2013-01-20 11:36:00,
2013-01-20 03:41:00,32.9,17.2,30.15,SW,225,2.7,3.1,52,0.00,,,0.00,WUHU216TE923,2013-01-20 11:41:00,
2013-01-20 03:46:00,32.7,16.5,30.15,West,270,2.9,3.8,51,0.00,,,0.00,WUHU216TE923,2013-01-20 11:46:00,
2013-01-20 03:51:00,32.7,16.5,30.15,West,270,2.9,3.8,51,0.00,,,0.00,WUHU216TE923,2013-01-20 11:51:00,
2013-01-20 03:56:00,32.7,16.5,30.15,West,270,2.5,2.5,51,0.00,,,0.00,WUHU216TE923,2013-01-20 11:56:00,
2013-01-20 04:01:00,32.7,16.5,30.15,West,270,2.5,2.5,51,0.00,,,0.00,WUHU216TE923,2013-01-20 12:01:00,
2013-01-20 04:06:00,31.6,15.9,30.16,SW,225,1.2,3.3,52,0.00,,,0.00,WUHU216TE923,2013-01-20 12:06:00,
2013-01-20 04:11:00,31.6,15.9,30.16,SW,225,1.2,3.3,52,0.00,,,0.00,WUHU216TE923,2013-01-20 12:11:00,
2013-01-20 04:16:00,32.0,16.3,30.16,SW,225,2.7,2.8,52,0.00,,,0.00,WUHU216TE923,2013-01-20 12:16:00,
2013-01-20 04:21:00,32.0,16.3,30.16,SW,225,2.7,2.8,52,0.00,,,0.00,WUHU216TE923,2013-01-20 12:21:00,
2013-01-20 04:26:00,32.0,16.3,30.16,SW,225,2.6,3.5,52,0.00,,,0.00,WUHU216TE923,2013-01-20 12:26:00,
2013-01-20 04:31:00,32.0,16.3,30.16,SW,225,2.6,3.5,52,0.00,,,0.00,WUHU216TE923,2013-01-20 12:31:00,
2013-01-20 04:36:00,32.2,16.5,30.16,SW,225,2.7,4.4,52,0.00,,,0.00,WUHU216TE923,2013-01-20 12:36:00,
2013-01-20 04:41:00,32.2,16.5,30.16,SW,225,2.7,4.4,52,0.00,,,0.00,WUHU216TE923,2013-01-20 12:41:00,
2013-01-20 04:46:00,31.8,16.1,30.15,SW,225,2.7,3.4,52,0.00,,,0.00,WUHU216TE923,2013-01-20 12:46:00,
2013-01-20 04:51:00,31.8,16.1,30.15,SW,225,2.7,3.4,52,0.00,,,0.00,WUHU216TE923,2013-01-20 12:51:00,
2013-01-20 04:56:00,31.6,15.9,30.15,SSW,203,2.7,2.7,52,0.00,,,0.00,WUHU216TE923,2013-01-20 12:56:00,
2013-01-20 05:01:00,31.6,15.9,30.15,SSW,203,2.7,2.7,52,0.00,,,0.00,WUHU216TE923,2013-01-20 13:01:00,
2013-01-20 05:06:00,31.6,15.9,30.15,WSW,248,2.1,2.5,52,0.00,,,0.00,WUHU216TE923,2013-01-20 13:06:00,
2013-01-20 05:11:00,31.6,15.9,30.15,WSW,248,2.1,2.5,52,0.00,,,0.00,WUHU216TE923,2013-01-20 13:11:00,
2013-01-20 05:16:00,31.6,15.9,30.15,WSW,248,2.3,2.6,52,0.00,,,0.00,WUHU216TE923,2013-01-20 13:16:00,
2013-01-20 05:22:00,31.6,15.9,30.15,WSW,248,2.3,2.6,52,0.00,,,0.00,WUHU216TE923,2013-01-20 13:22:00,
2013-01-20 05:27:00,31.5,15.9,30.15,West,270,1.7,2.5,52,0.00,,,0.00,WUHU216TE923,2013-01-20 13:27:00,
2013-01-20 05:32:00,31.5,15.9,30.15,West,270,1.7,2.5,52,0.00,,,0.00,WUHU216TE923,2013-01-20 13:32:00,
2013-01-20 05:37:00,31.6,15.5,30.15,South,180,3.4,3.8,51,0.00,,,0.00,WUHU216TE923,2013-01-20 13:37:00,
2013-01-20 05:42:00,31.6,15.5,30.15,South,180,3.4,3.8,51,0.00,,,0.00,WUHU216TE923,2013-01-20 13:42:00,
2013-01-20 05:47:00,31.6,15.0,30.14,SE,135,0.9,1.7,50,0.00,,,0.00,WUHU216TE923,2013-01-20 13:47:00,
2013-01-20 05:52:00,31.6,15.0,30.14,SE,135,0.9,1.7,50,0.00,,,0.00,WUHU216TE923,2013-01-20 13:52:00,
2013-01-20 05:57:00,31.5,14.9,30.14,NNW,338,0.5,0.6,50,0.00,,,0.00,WUHU216TE923,2013-01-20 13:57:00,
2013-01-20 06:02:00,31.5,14.9,30.14,NNW,338,0.5,0.6,50,0.00,,,0.00,WUHU216TE923,2013-01-20 14:02:00,
2013-01-20 06:07:00,31.6,15.0,30.13,SW,225,2.1,9.8,50,0.00,,,0.00,WUHU216TE923,2013-01-20 14:07:00,
2013-01-20 06:12:00,31.6,15.0,30.13,SW,225,2.1,9.8,50,0.00,,,0.00,WUHU216TE923,2013-01-20 14:12:00,
2013-01-20 06:17:00,31.1,14.6,30.13,WSW,248,3.9,9.8,50,0.00,,,0.00,WUHU216TE923,2013-01-20 14:17:00,
2013-01-20 06:22:00,31.1,14.6,30.13,WSW,248,3.9,9.8,50,0.00,,,0.00,WUHU216TE923,2013-01-20 14:22:00,
2013-01-20 06:27:00,30.4,13.9,30.13,SW,225,3.8,8.4,50,0.00,,,0.00,WUHU216TE923,2013-01-20 14:27:00,
2013-01-20 06:32:00,30.4,13.9,30.13,SW,225,3.8,8.4,50,0.00,,,0.00,WUHU216TE923,2013-01-20 14:32:00,
2013-01-20 06:37:00,30.0,13.5,30.13,WSW,248,3.8,4.9,50,0.00,,,0.00,WUHU216TE923,2013-01-20 14:37:00,
2013-01-20 06:42:00,30.0,13.5,30.13,WSW,248,3.8,4.9,50,0.00,,,0.00,WUHU216TE923,2013-01-20 14:42:00,
2013-01-20 06:47:00,29.8,13.3,30.14,SW,225,4.8,6.7,50,0.00,,,0.00,WUHU216TE923,2013-01-20 14:47:00,
2013-01-20 06:52:00,29.8,13.3,30.14,SW,225,4.8,6.7,50,0.00,,,0.00,WUHU216TE923,2013-01-20 14:52:00,
2013-01-20 06:57:00,29.5,13.5,30.14,SSW,203,4.3,6.6,51,0.00,,,0.00,WUHU216TE923,2013-01-20 14:57:00,
2013-01-20 07:02:00,29.5,13.5,30.14,SSW,203,4.3,6.6,51,0.00,,,0.00,WUHU216TE923,2013-01-20 15:02:00,
2013-01-20 07:07:00,29.3,13.3,30.14,SW,225,4.3,6.2,51,0.00,,,0.00,WUHU216TE923,2013-01-20 15:07:00,
2013-01-20 07:12:00,29.3,13.3,30.14,SW,225,4.3,6.2,51,0.00,,,0.00,WUHU216TE923,2013-01-20 15:12:00,
2013-01-20 07:17:00,29.3,13.3,30.14,WNW,293,4.2,4.2,51,0.00,,,0.00,WUHU216TE923,2013-01-20 15:17:00,
2013-01-20 07:22:00,29.3,13.3,30.14,WNW,293,4.2,4.2,51,0.00,,,0.00,WUHU216TE923,2013-01-20 15:22:00,
2013-01-20 07:27:00,29.3,13.3,30.14,South,180,2.9,4.1,51,0.00,,,0.00,WUHU216TE923,2013-01-20 15:27:00,
2013-01-20 07:32:00,29.3,13.3,30.14,South,180,2.9,4.1,51,0.00,,,0.00,WUHU216TE923,2013-01-20 15:32:00,
2013-01-20 07:37:00,29.7,13.3,30.14,South,180,4.0,5.1,50,0.00,,,0.00,WUHU216TE923,2013-01-20 15:37:00,
2013-01-20 07:42:00,29.7,13.3,30.14,South,180,4.0,5.1,50,0.00,,,0.00,WUHU216TE923,2013-01-20 15:42:00,
2013-01-20 07:47:00,29.1,12.7,30.14,SSW,203,4.5,5.6,50,0.00,,,0.00,WUHU216TE923,2013-01-20 15:47:00,
2013-01-20 07:52:00,29.1,12.7,30.14,SSW,203,4.5,5.6,50,0.00,,,0.00,WUHU216TE923,2013-01-20 15:52:00,
2013-01-20 07:57:00,28.6,12.2,30.14,WSW,248,3.8,5.5,50,0.00,,,0.00,WUHU216TE923,2013-01-20 15:57:00,
2013-01-20 08:02:00,28.6,12.2,30.14,WSW,248,3.8,5.5,50,0.00,,,0.00,WUHU216TE923,2013-01-20 16:02:00,
2013-01-20 08:07:00,28.6,12.7,30.14,WSW,248,3.5,5.9,51,0.00,,,0.00,WUHU216TE923,2013-01-20 16:07:00,
2013-01-20 08:12:00,28.6,12.7,30.14,WSW,248,3.5,5.9,51,0.00,,,0.00,WUHU216TE923,2013-01-20 16:12:00,
2013-01-20 08:17:00,28.8,12.4,30.14,West,270,4.4,7.0,50,0.00,,,0.00,WUHU216TE923,2013-01-20 16:17:00,
2013-01-20 08:22:00,28.8,12.4,30.14,West,270,4.4,7.0,50,0.00,,,0.00,WUHU216TE923,2013-01-20 16:22:00,
2013-01-20 08:27:00,28.8,12.9,30.15,West,270,4.7,6.2,51,0.00,,,0.00,WUHU216TE923,2013-01-20 16:27:00,
2013-01-20 08:32:00,28.8,12.9,30.15,West,270,4.7,6.2,51,0.00,,,0.00,WUHU216TE923,2013-01-20 16:32:00,
2013-01-20 08:37:00,29.1,13.2,30.15,South,180,3.9,4.4,51,0.00,,,0.00,WUHU216TE923,2013-01-20 16:37:00,
2013-01-20 08:42:00,29.1,13.2,30.15,South,180,3.9,4.4,51,0.00,,,0.00,WUHU216TE923,2013-01-20 16:42:00,
2013-01-20 08:47:00,29.3,13.3,30.16,SE,135,1.8,3.0,51,0.00,,,0.00,WUHU216TE923,2013-01-20 16:47:00,
2013-01-20 08:52:00,29.3,13.3,30.16,SE,135,1.8,3.0,51,0.00,,,0.00,WUHU216TE923,2013-01-20 16:52:00,
2013-01-20 08:57:00,29.3,13.3,30.16,WSW,248,1.9,4.1,51,0.00,,,0.00,WUHU216TE923,2013-01-20 16:57:00,
2013-01-20 09:02:00,29.3,13.3,30.16,WSW,248,1.9,4.1,51,0.00,,,0.00,WUHU216TE923,2013-01-20 17:02:00,
2013-01-20 09:07:00,29.7,13.7,30.17,SW,225,2.9,3.9,51,0.00,,,0.00,WUHU216TE923,2013-01-20 17:07:00,
2013-01-20 09:12:00,29.7,13.7,30.17,SW,225,2.9,3.9,51,0.00,,,0.00,WUHU216TE923,2013-01-20 17:12:00,
2013-01-20 09:17:00,29.7,13.7,30.17,WSW,248,3.6,4.6,51,0.00,,,0.00,WUHU216TE923,2013-01-20 17:17:00,
2013-01-20 09:22:00,29.7,13.7,30.17,WSW,248,3.6,4.6,51,0.00,,,0.00,WUHU216TE923,2013-01-20 17:22:00,
2013-01-20 09:27:00,29.8,13.8,30.17,SSW,203,3.2,3.8,51,0.00,,,0.00,WUHU216TE923,2013-01-20 17:27:00,
2013-01-20 09:32:00,29.8,13.8,30.17,SSW,203,3.2,3.8,51,0.00,,,0.00,WUHU216TE923,2013-01-20 17:32:00,
2013-01-20 09:37:00,30.2,14.2,30.17,West,270,2.6,3.9,51,0.00,,,0.00,WUHU216TE923,2013-01-20 17:37:00,
2013-01-20 09:42:00,30.2,14.2,30.17,West,270,2.6,3.9,51,0.00,,,0.00,WUHU216TE923,2013-01-20 17:42:00,
2013-01-20 09:47:00,29.8,13.8,30.18,SSW,203,5.2,7.6,51,0.00,,,0.00,WUHU216TE923,2013-01-20 17:47:00,
2013-01-20 09:52:00,29.8,13.8,30.18,SSW,203,5.2,7.6,51,0.00,,,0.00,WUHU216TE923,2013-01-20 17:52:00,
2013-01-20 09:57:00,30.2,14.6,30.18,South,180,2.8,5.2,52,0.00,,,0.00,WUHU216TE923,2013-01-20 17:57:00,
2013-01-20 10:02:00,30.2,14.6,30.18,South,180,2.8,5.2,52,0.00,,,0.00,WUHU216TE923,2013-01-20 18:02:00,
2013-01-20 10:07:00,31.3,15.7,30.18,SW,225,7.0,10.7,52,0.00,,,0.00,WUHU216TE923,2013-01-20 18:07:00,
2013-01-20 10:12:00,31.3,15.7,30.18,SW,225,7.0,10.7,52,0.00,,,0.00,WUHU216TE923,2013-01-20 18:12:00,
2013-01-20 10:17:00,31.6,15.9,30.18,WNW,293,6.6,12.6,52,0.00,,,0.00,WUHU216TE923,2013-01-20 18:17:00,
2013-01-20 10:22:00,31.6,15.9,30.18,WNW,293,6.6,12.6,52,0.00,,,0.00,WUHU216TE923,2013-01-20 18:22:00,
2013-01-20 10:27:00,32.7,16.5,30.18,West,270,5.6,8.6,51,0.00,,,0.00,WUHU216TE923,2013-01-20 18:27:00,
2013-01-20 10:32:00,32.7,16.5,30.18,West,270,5.6,8.6,51,0.00,,,0.00,WUHU216TE923,2013-01-20 18:32:00,
2013-01-20 10:37:00,33.6,16.9,30.18,SSE,158,2.8,4.1,50,0.00,,,0.00,WUHU216TE923,2013-01-20 18:37:00,
2013-01-20 10:42:00,33.6,16.9,30.18,SSE,158,2.8,4.1,50,0.00,,,0.00,WUHU216TE923,2013-01-20 18:42:00,
2013-01-20 10:47:00,34.2,16.9,30.19,ESE,113,1.9,1.9,49,0.00,,,0.00,WUHU216TE923,2013-01-20 18:47:00,
2013-01-20 10:52:00,34.2,16.9,30.19,ESE,113,1.9,1.9,49,0.00,,,0.00,WUHU216TE923,2013-01-20 18:52:00,
2013-01-20 10:57:00,34.9,17.6,30.19,WSW,248,2.0,2.7,49,0.00,,,0.00,WUHU216TE923,2013-01-20 18:57:00,
2013-01-20 11:02:00,34.9,17.6,30.19,WSW,248,2.0,2.7,49,0.00,,,0.00,WUHU216TE923,2013-01-20 19:02:00,
2013-01-20 11:07:00,35.6,18.2,30.19,SSW,203,2.6,5.0,49,0.00,,,0.00,WUHU216TE923,2013-01-20 19:07:00,
2013-01-20 11:12:00,35.6,18.2,30.19,SSW,203,2.6,5.0,49,0.00,,,0.00,WUHU216TE923,2013-01-20 19:12:00,
2013-01-20 11:17:00,36.0,18.1,30.19,South,180,2.5,6.0,48,0.00,,,0.00,WUHU216TE923,2013-01-20 19:17:00,
2013-01-20 11:22:00,36.0,18.1,30.19,South,180,2.5,6.0,48,0.00,,,0.00,WUHU216TE923,2013-01-20 19:22:00,
2013-01-20 11:27:00,36.5,18.6,30.18,SSE,158,2.5,4.0,48,0.00,,,0.00,WUHU216TE923,2013-01-20 19:27:00,
2013-01-20 11:32:00,36.5,18.6,30.18,SSE,158,2.5,4.0,48,0.00,,,0.00,WUHU216TE923,2013-01-20 19:32:00,
2013-01-20 11:37:00,37.0,19.0,30.18,WSW,248,1.5,1.6,48,0.00,,,0.00,WUHU216TE923,2013-01-20 19:37:00,
2013-01-20 11:42:00,37.0,19.0,30.18,WSW,248,1.5,1.6,48,0.00,,,0.00,WUHU216TE923,2013-01-20 19:42:00,
2013-01-20 11:47:00,37.4,18.9,30.19,WSW,248,1.0,1.1,47,0.00,,,0.00,WUHU216TE923,2013-01-20 19:47:00,
2013-01-20 11:52:00,37.4,18.9,30.19,WSW,248,1.0,1.1,47,0.00,,,0.00,WUHU216TE923,2013-01-20 19:52:00,
2013-01-20 11:57:00,37.8,18.7,30.19,SSE,158,0.4,2.4,46,0.00,,,0.00,WUHU216TE923,2013-01-20 19:57:00,
2013-01-20 12:02:00,37.8,18.7,30.19,SSE,158,0.4,2.4,46,0.00,,,0.00,WUHU216TE923,2013-01-20 20:02:00,
2013-01-20 12:07:00,38.7,19.6,30.18,South,180,1.3,4.0,46,0.00,,,0.00,WUHU216TE923,2013-01-20 20:07:00,
2013-01-20 12:12:00,38.7,19.6,30.18,South,180,1.3,4.0,46,0.00,,,0.00,WUHU216TE923,2013-01-20 20:12:00,
2013-01-20 12:17:00,39.7,19.4,30.18,SW,225,1.7,4.0,44,0.00,,,0.00,WUHU216TE923,2013-01-20 20:17:00,
2013-01-20 12:22:00,39.7,19.4,30.18,SW,225,1.7,4.0,44,0.00,,,0.00,WUHU216TE923,2013-01-20 20:22:00,
2013-01-20 12:27:00,39.9,19.6,30.17,SSE,158,1.1,2.2,44,0.00,,,0.00,WUHU216TE923,2013-01-20 20:27:00,
2013-01-20 12:32:00,39.9,19.6,30.17,SSE,158,1.1,2.2,44,0.00,,,0.00,WUHU216TE923,2013-01-20 20:32:00,
2013-01-20 12:37:00,40.5,19.6,30.17,South,180,0.9,1.2,43,0.00,,,0.00,WUHU216TE923,2013-01-20 20:37:00,
2013-01-20 12:42:00,40.5,19.6,30.17,South,180,0.9,1.2,43,0.00,,,0.00,WUHU216TE923,2013-01-20 20:42:00,
2013-01-20 12:47:00,40.8,19.9,30.17,SSE,158,0.8,2.6,43,0.00,,,0.00,WUHU216TE923,2013-01-20 20:47:00,
2013-01-20 12:52:00,40.8,19.9,30.17,SSE,158,0.8,2.6,43,0.00,,,0.00,WUHU216TE923,2013-01-20 20:52:00,
2013-01-20 12:57:00,41.4,19.8,30.17,SE,135,0.4,1.6,42,0.00,,,0.00,WUHU216TE923,2013-01-20 20:57:00,
2013-01-20 13:02:00,41.5,19.4,30.16,ESE,113,0.2,0.4,41,0.00,,,0.00,WUHU216TE923,2013-01-20 21:02:00,
2013-01-20 13:07:00,41.5,19.4,30.16,SE,135,0.4,0.4,41,0.00,,,0.00,WUHU216TE923,2013-01-20 21:07:00,
2013-01-20 13:13:00,41.7,18.9,30.16,NNE,23,0.5,0.5,40,0.00,,,0.00,WUHU216TE923,2013-01-20 21:13:00,
2013-01-20 13:18:00,42.1,19.9,30.16,ENE,68,0.7,0.7,41,0.00,,,0.00,WUHU216TE923,2013-01-20 21:18:00,
2013-01-20 13:23:00,41.9,19.1,30.16,East,90,0.7,0.7,40,0.00,,,0.00,WUHU216TE923,2013-01-20 21:23:00,
2013-01-20 13:28:00,42.1,19.3,30.16,ESE,113,0.3,1.4,40,0.00,,,0.00,WUHU216TE923,2013-01-20 21:28:00,
2013-01-20 13:33:00,42.1,19.3,30.16,SE,135,0.3,1.4,40,0.00,,,0.00,WUHU216TE923,2013-01-20 21:33:00,
2013-01-20 13:38:00,42.4,19.6,30.16,SW,225,0.3,0.3,40,0.00,,,0.00,WUHU216TE923,2013-01-20 21:38:00,
2013-01-20 13:43:00,42.3,18.9,30.15,SSE,158,0.2,0.3,39,0.00,,,0.00,WUHU216TE923,2013-01-20 21:43:00,
2013-01-20 13:48:00,42.3,18.9,30.15,SSW,203,0.2,0.2,39,0.00,,,0.00,WUHU216TE923,2013-01-20 21:48:00,
2013-01-20 13:53:00,42.4,19.0,30.15,ESE,113,0.4,1.4,39,0.00,,,0.00,WUHU216TE923,2013-01-20 21:53:00,
2013-01-20 13:58:00,42.6,19.2,30.15,SE,135,0.3,1.4,39,0.00,,,0.00,WUHU216TE923,2013-01-20 21:58:00,
2013-01-20 14:03:00,42.6,19.2,30.15,SE,135,0.2,0.3,39,0.00,,,0.00,WUHU216TE923,2013-01-20 22:03:00,
2013-01-20 14:08:00,43.0,18.9,30.15,South,180,0.3,1.3,38,0.00,,,0.00,WUHU216TE923,2013-01-20 22:08:00,
2013-01-20 14:13:00,43.0,18.9,30.15,SSE,158,0.4,1.3,38,0.00,,,0.00,WUHU216TE923,2013-01-20 22:13:00,
2013-01-20 14:18:00,43.2,19.1,30.15,SSE,158,0.2,0.4,38,0.00,,,0.00,WUHU216TE923,2013-01-20 22:18:00,
2013-01-20 14:23:00,43.2,19.1,30.14,South,180,0.1,0.2,38,0.00,,,0.00,WUHU216TE923,2013-01-20 22:23:00,
2013-01-20 14:28:00,43.2,19.1,30.14,SE,135,0.1,0.1,38,0.00,,,0.00,WUHU216TE923,2013-01-20 22:28:00,
2013-01-20 14:33:00,43.0,18.9,30.14,ENE,68,0.3,3.1,38,0.00,,,0.00,WUHU216TE923,2013-01-20 22:33:00,
2013-01-20 14:38:00,42.8,18.7,30.14,SE,135,0.3,3.1,38,0.00,,,0.00,WUHU216TE923,2013-01-20 22:38:00,
2013-01-20 14:43:00,43.0,18.9,30.14,SE,135,0.3,1.0,38,0.00,,,0.00,WUHU216TE923,2013-01-20 22:43:00,
2013-01-20 14:48:00,42.4,18.4,30.14,SE,135,0.1,0.3,38,0.00,,,0.00,WUHU216TE923,2013-01-20 22:48:00,
2013-01-20 14:53:00,42.4,18.4,30.14,ESE,113,0.1,1.8,38,0.00,,,0.00,WUHU216TE923,2013-01-20 22:53:00,
2013-01-20 14:58:00,42.3,18.3,30.14,SE,135,0.2,1.8,38,0.00,,,0.00,WUHU216TE923,2013-01-20 22:58:00,
2013-01-20 15:03:00,41.2,18.5,30.14,East,90,0.2,2.0,40,0.00,,,0.00,WUHU216TE923,2013-01-20 23:03:00,
2013-01-20 15:08:00,41.4,18.7,30.14,East,90,0.3,2.0,40,0.00,,,0.00,WUHU216TE923,2013-01-20 23:08:00,
2013-01-20 15:13:00,40.6,18.5,30.14,South,180,0.3,0.3,41,0.00,,,0.00,WUHU216TE923,2013-01-20 23:13:00,
2013-01-20 15:18:00,40.1,18.7,30.14,SSE,158,0.0,0.3,42,0.00,,,0.00,WUHU216TE923,2013-01-20 23:18:00,
2013-01-20 15:23:00,39.4,18.6,30.13,WSW,248,0.0,0.0,43,0.00,,,0.00,WUHU216TE923,2013-01-20 23:23:00,
2013-01-20 15:28:00,39.2,19.0,30.13,SW,225,0.0,0.0,44,0.00,,,0.00,WUHU216TE923,2013-01-20 23:28:00,
2013-01-20 15:33:00,38.7,19.0,30.13,WSW,248,0.0,0.0,45,0.00,,,0.00,WUHU216TE923,2013-01-20 23:33:00,
2013-01-20 15:38:00,38.5,19.4,30.13,WSW,248,0.1,0.1,46,0.00,,,0.00,WUHU216TE923,2013-01-20 23:38:00,
2013-01-20 15:43:00,38.1,19.0,30.14,SW,225,0.1,0.1,46,0.00,,,0.00,WUHU216TE923,2013-01-20 23:43:00,
2013-01-20 15:48:00,37.9,19.4,30.14,WSW,248,0.0,0.1,47,0.00,,,0.00,WUHU216TE923,2013-01-20 23:48:00,
2013-01-20 15:53:00,37.8,19.3,30.14,SW,225,0.1,1.0,47,0.00,,,0.00,WUHU216TE923,2013-01-20 23:53:00,
2013-01-20 15:58:00,37.4,19.4,30.14,SW,225,0.1,1.1,48,0.00,,,0.00,WUHU216TE923,2013-01-20 23:58:00,
2013-01-20 16:03:00,37.2,19.7,30.14,SW,225,0.3,1.1,49,0.00,,,0.00,WUHU216TE923,2013-01-21 00:03:00,
2013-01-20 16:08:00,37.0,19.5,30.14,WSW,248,0.6,1.0,49,0.00,,,0.00,WUHU216TE923,2013-01-21 00:08:00,
2013-01-20 16:13:00,36.9,19.4,30.14,SW,225,0.5,1.0,49,0.00,,,0.00,WUHU216TE923,2013-01-21 00:13:00,
2013-01-20 16:18:00,36.5,20.0,30.14,WSW,248,0.4,1.0,51,0.00,,,0.00,WUHU216TE923,2013-01-21 00:18:00,
2013-01-20 16:23:00,36.3,19.8,30.14,WSW,248,0.4,1.2,51,0.00,,,0.00,WUHU216TE923,2013-01-21 00:23:00,
2013-01-20 16:28:00,36.3,19.8,30.14,WSW,248,0.5,1.2,51,0.00,,,0.00,WUHU216TE923,2013-01-21 00:28:00,
2013-01-20 16:33:00,36.1,19.7,30.14,WSW,248,0.7,1.2,51,0.00,,,0.00,WUHU216TE923,2013-01-21 00:33:00,
2013-01-20 16:38:00,36.1,20.1,30.14,SW,225,1.0,1.3,52,0.00,,,0.00,WUHU216TE923,2013-01-21 00:38:00,
2013-01-20 16:43:00,36.0,20.0,30.13,SW,225,1.2,1.4,52,0.00,,,0.00,WUHU216TE923,2013-01-21 00:43:00,
2013-01-20 16:48:00,35.8,19.9,30.13,SW,225,1.2,1.6,52,0.00,,,0.00,WUHU216TE923,2013-01-21 00:48:00,
2013-01-20 16:53:00,35.6,20.1,30.13,SW,225,1.3,1.6,53,0.00,,,0.00,WUHU216TE923,2013-01-21 00:53:00,
2013-01-20 16:58:00,35.4,19.9,30.13,SW,225,1.4,1.6,53,0.00,,,0.00,WUHU216TE923,2013-01-21 00:58:00,
2013-01-20 17:03:00,35.2,19.8,30.13,WSW,248,1.3,1.6,53,0.00,,,0.00,WUHU216TE923,2013-01-21 01:03:00,
2013-01-20 17:08:00,34.9,19.5,30.13,SW,225,1.3,1.5,53,0.00,,,0.00,WUHU216TE923,2013-01-21 01:08:00,
2013-01-20 17:13:00,34.9,19.9,30.13,West,270,1.3,1.6,54,0.00,,,0.00,WUHU216TE923,2013-01-21 01:13:00,
2013-01-20 17:18:00,34.7,19.7,30.13,WSW,248,1.3,1.6,54,0.00,,,0.00,WUHU216TE923,2013-01-21 01:18:00,
2013-01-20 17:23:00,34.5,19.6,30.12,WSW,248,1.3,1.7,54,0.00,,,0.00,WUHU216TE923,2013-01-21 01:23:00,
2013-01-20 17:28:00,34.5,19.6,30.12,SW,225,1.3,1.7,54,0.00,,,0.00,WUHU216TE923,2013-01-21 01:28:00,
2013-01-20 17:33:00,34.5,19.6,30.12,West,270,1.3,1.4,54,0.00,,,0.00,WUHU216TE923,2013-01-21 01:33:00,
2013-01-20 17:38:00,34.5,19.6,30.12,West,270,1.2,1.4,54,0.00,,,0.00,WUHU216TE923,2013-01-21 01:38:00,
2013-01-20 17:43:00,34.3,19.4,30.12,WSW,248,1.1,1.3,54,0.00,,,0.00,WUHU216TE923,2013-01-21 01:43:00,
2013-01-20 17:48:00,34.3,19.4,30.12,SW,225,0.9,1.3,54,0.00,,,0.00,WUHU216TE923,2013-01-21 01:48:00,
2013-01-20 17:53:00,34.2,19.3,30.12,WSW,248,0.5,1.1,54,0.00,,,0.00,WUHU216TE923,2013-01-21 01:53:00,
2013-01-20 17:58:00,34.0,19.1,30.12,WSW,248,0.6,1.2,54,0.00,,,0.00,WUHU216TE923,2013-01-21 01:58:00,
2013-01-20 18:03:00,33.8,19.3,30.12,West,270,1.1,1.4,55,0.00,,,0.00,WUHU216TE923,2013-01-21 02:03:00,
2013-01-20 18:08:00,33.8,19.3,30.12,West,270,1.1,1.4,55,0.00,,,0.00,WUHU216TE923,2013-01-21 02:08:00,
2013-01-20 18:13:00,33.8,19.3,30.12,SW,225,1.1,1.3,55,0.00,,,0.00,WUHU216TE923,2013-01-21 02:13:00,
2013-01-20 18:18:00,34.0,19.1,30.12,WSW,248,1.0,1.2,54,0.00,,,0.00,WUHU216TE923,2013-01-21 02:18:00,
2013-01-20 18:23:00,34.3,19.4,30.12,WSW,248,1.1,1.1,54,0.00,,,0.00,WUHU216TE923,2013-01-21 02:23:00,
2013-01-20 18:28:00,34.0,19.1,30.12,WSW,248,0.9,1.1,54,0.00,,,0.00,WUHU216TE923,2013-01-21 02:28:00,
2013-01-20 18:33:00,33.6,18.7,30.12,WSW,248,0.9,1.7,54,0.00,,,0.00,WUHU216TE923,2013-01-21 02:33:00,
2013-01-20 18:38:00,33.8,18.9,30.12,West,270,1.2,1.7,54,0.00,,,0.00,WUHU216TE923,2013-01-21 02:38:00,
2013-01-20 18:43:00,33.8,18.9,30.12,WSW,248,1.4,1.6,54,0.00,,,0.00,WUHU216TE923,2013-01-21 02:43:00,
2013-01-20 18:48:00,33.8,18.9,30.12,WSW,248,1.4,1.5,54,0.00,,,0.00,WUHU216TE923,2013-01-21 02:48:00,
2013-01-20 18:53:00,33.6,18.7,30.12,SSW,203,1.5,2.1,54,0.00,,,0.00,WUHU216TE923,2013-01-21 02:53:00,
2013-01-20 18:58:00,33.4,18.5,30.12,WSW,248,1.6,2.1,54,0.00,,,0.00,WUHU216TE923,2013-01-21 02:58:00,
2013-01-20 19:03:00,33.1,18.2,30.14,SW,225,1.6,1.7,54,0.00,,,0.00,WUHU216TE923,2013-01-21 03:03:00,
2013-01-20 19:08:00,33.1,18.2,30.14,WSW,248,1.3,1.6,54,0.00,,,0.00,WUHU216TE923,2013-01-21 03:08:00,
2013-01-20 19:13:00,32.9,18.1,30.14,WNW,293,0.7,1.4,54,0.00,,,0.00,WUHU216TE923,2013-01-21 03:13:00,
2013-01-20 19:18:00,33.1,18.2,30.14,WNW,293,0.6,1.4,54,0.00,,,0.00,WUHU216TE923,2013-01-21 03:18:00,
2013-01-20 19:23:00,32.9,18.1,30.13,WSW,248,0.5,0.6,54,0.00,,,0.00,WUHU216TE923,2013-01-21 03:23:00,
2013-01-20 19:28:00,32.7,17.9,30.13,WNW,293,0.3,0.5,54,0.00,,,0.00,WUHU216TE923,2013-01-21 03:28:00,
2013-01-20 19:33:00,32.5,17.7,30.13,West,270,0.1,0.3,54,0.00,,,0.00,WUHU216TE923,2013-01-21 03:33:00,
2013-01-20 19:38:00,32.4,18.0,30.13,WSW,248,0.5,1.3,55,0.00,,,0.00,WUHU216TE923,2013-01-21 03:38:00,
2013-01-20 19:44:00,32.2,17.8,30.14,WSW,248,0.9,1.7,55,0.00,,,0.00,WUHU216TE923,2013-01-21 03:44:00,
2013-01-20 19:49:00,32.0,17.7,30.14,West,270,1.2,1.7,55,0.00,,,0.00,WUHU216TE923,2013-01-21 03:49:00,
2013-01-20 19:54:00,31.6,17.3,30.14,WSW,248,1.4,1.7,55,0.00,,,0.00,WUHU216TE923,2013-01-21 03:54:00,
2013-01-20 19:59:00,31.5,17.2,30.14,SW,225,1.6,2.4,55,0.00,,,0.00,WUHU216TE923,2013-01-21 03:59:00,
2013-01-20 20:04:00,31.1,17.2,30.13,SW,225,2.0,2.4,56,0.00,,,0.00,WUHU216TE923,2013-01-21 04:04:00,
2013-01-20 20:09:00,30.9,17.0,30.13,South,180,2.0,2.2,56,0.00,,,0.00,WUHU216TE923,2013-01-21 04:09:00,
2013-01-20 20:14:00,31.5,17.6,30.13,SSW,203,1.9,5.2,56,0.00,,,0.00,WUHU216TE923,2013-01-21 04:14:00,
2013-01-20 20:19:00,32.0,17.2,30.13,WSW,248,2.1,5.2,54,0.00,,,0.00,WUHU216TE923,2013-01-21 04:19:00,
2013-01-20 20:24:00,32.5,17.2,30.13,SW,225,2.5,3.2,53,0.00,,,0.00,WUHU216TE923,2013-01-21 04:24:00,
2013-01-20 20:29:00,32.7,17.4,30.13,NW,315,2.7,4.0,53,0.00,,,0.00,WUHU216TE923,2013-01-21 04:29:00,
2013-01-20 20:34:00,32.9,16.7,30.13,SE,135,2.1,4.0,51,0.00,,,0.00,WUHU216TE923,2013-01-21 04:34:00,
2013-01-20 20:39:00,32.9,16.2,30.13,NW,315,1.3,3.0,50,0.00,,,0.00,WUHU216TE923,2013-01-21 04:39:00,
2013-01-20 20:44:00,32.7,16.0,30.14,SSE,158,0.7,1.9,50,0.00,,,0.00,WUHU216TE923,2013-01-21 04:44:00,
2013-01-20 20:49:00,32.7,15.6,30.14,ENE,68,0.5,1.9,49,0.00,,,0.00,WUHU216TE923,2013-01-21 04:49:00,
2013-01-20 20:54:00,32.4,15.3,30.14,NNE,23,0.4,1.1,49,0.00,,,0.00,WUHU216TE923,2013-01-21 04:54:00,
2013-01-20 20:59:00,32.2,15.1,30.14,SW,225,0.6,7.7,49,0.00,,,0.00,WUHU216TE923,2013-01-21 04:59:00,
2013-01-20 21:04:00,32.2,15.1,30.14,SW,225,2.0,7.7,49,0.00,,,0.00,WUHU216TE923,2013-01-21 05:04:00,
2013-01-20 21:09:00,32.4,15.3,30.14,SW,225,3.0,5.2,49,0.00,,,0.00,WUHU216TE923,2013-01-21 05:09:00,
2013-01-20 21:14:00,32.4,15.3,30.14,WSW,248,3.3,5.2,49,0.00,,,0.00,WUHU216TE923,2013-01-21 05:14:00,
2013-01-20 21:19:00,32.4,15.3,30.14,WSW,248,3.3,4.6,49,0.00,,,0.00,WUHU216TE923,2013-01-21 05:19:00,
2013-01-20 21:24:00,32.4,15.3,30.14,SSW,203,3.2,3.8,49,0.00,,,0.00,WUHU216TE923,2013-01-21 05:24:00,
2013-01-20 21:29:00,32.2,15.1,30.14,SW,225,2.7,3.8,49,0.00,,,0.00,WUHU216TE923,2013-01-21 05:29:00,
2013-01-20 21:34:00,32.4,15.3,30.14,SW,225,2.8,2.8,49,0.00,,,0.00,WUHU216TE923,2013-01-21 05:34:00,
2013-01-20 21:39:00,32.4,15.3,30.14,SW,225,3.2,8.6,49,0.00,,,0.00,WUHU216TE923,2013-01-21 05:39:00,
2013-01-20 21:44:00,32.5,15.4,30.12,SW,225,3.9,8.6,49,0.00,,,0.00,WUHU216TE923,2013-01-21 05:44:00,
2013-01-20 21:49:00,32.7,15.6,30.12,SW,225,4.6,7.5,49,0.00,,,0.00,WUHU216TE923,2013-01-21 05:49:00,
2013-01-20 21:54:00,32.9,15.7,30.12,WSW,248,4.5,7.5,49,0.00,,,0.00,WUHU216TE923,2013-01-21 05:54:00,
2013-01-20 21:59:00,32.9,15.3,30.12,South,180,3.3,4.5,48,0.00,,,0.00,WUHU216TE923,2013-01-21 05:59:00,
2013-01-20 22:04:00,32.9,15.3,30.12,South,180,2.5,3.3,48,0.00,,,0.00,WUHU216TE923,2013-01-21 06:04:00,
2013-01-20 22:09:00,33.1,15.4,30.12,West,270,3.4,5.2,48,0.00,,,0.00,WUHU216TE923,2013-01-21 06:09:00,
2013-01-20 22:14:00,33.3,15.6,30.12,WSW,248,4.3,6.6,48,0.00,,,0.00,WUHU216TE923,2013-01-21 06:14:00,
2013-01-20 22:19:00,33.1,15.4,30.12,SW,225,5.2,9.7,48,0.00,,,0.00,WUHU216TE923,2013-01-21 06:19:00,
2013-01-20 22:24:00,33.3,15.6,30.10,NW,315,6.5,9.7,48,0.00,,,0.00,WUHU216TE923,2013-01-21 06:24:00,
2013-01-20 22:29:00,33.3,15.6,30.10,SW,225,7.6,11.0,48,0.00,,,0.00,WUHU216TE923,2013-01-21 06:29:00,
2013-01-20 22:34:00,33.3,15.6,30.10,SW,225,8.4,11.0,48,0.00,,,0.00,WUHU216TE923,2013-01-21 06:34:00,
2013-01-20 22:39:00,33.1,15.4,30.10,South,180,8.4,8.4,48,0.00,,,0.00,WUHU216TE923,2013-01-21 06:39:00,
2013-01-20 22:44:00,33.3,15.6,30.09,WSW,248,8.6,15.6,48,0.00,,,0.00,WUHU216TE923,2013-01-21 06:44:00,
2013-01-20 22:49:00,33.3,15.6,30.09,South,180,9.4,15.6,48,0.00,,,0.00,WUHU216TE923,2013-01-21 06:49:00,
2013-01-20 22:54:00,33.1,14.9,30.09,SSW,203,9.1,10.4,47,0.00,,,0.00,WUHU216TE923,2013-01-21 06:54:00,
2013-01-20 22:59:00,33.1,14.9,30.09,SW,225,8.4,9.1,47,0.00,,,0.00,WUHU216TE923,2013-01-21 06:59:00,
2013-01-20 23:04:00,33.1,14.9,30.07,SW,225,8.7,11.5,47,0.00,,,0.00,WUHU216TE923,2013-01-21 07:04:00,
2013-01-20 23:09:00,33.1,14.9,30.07,WSW,248,8.8,11.5,47,0.00,,,0.00,WUHU216TE923,2013-01-21 07:09:00,
2013-01-20 23:14:00,32.9,14.8,30.07,SW,225,8.0,9.5,47,0.00,,,0.00,WUHU216TE923,2013-01-21 07:14:00,
2013-01-20 23:19:00,32.9,14.8,30.07,WSW,248,7.8,9.8,47,0.00,,,0.00,WUHU216TE923,2013-01-21 07:19:00,
2013-01-20 23:24:00,32.9,14.8,30.08,SSW,203,7.9,14.2,47,0.00,,,0.00,WUHU216TE923,2013-01-21 07:24:00,
2013-01-20 23:29:00,32.7,14.6,30.08,SW,225,7.8,14.2,47,0.00,,,0.00,WUHU216TE923,2013-01-21 07:29:00,
2013-01-20 23:34:00,32.7,14.6,30.08,SW,225,8.5,18.8,47,0.00,,,0.00,WUHU216TE923,2013-01-21 07:34:00,
2013-01-20 23:39:00,32.7,14.6,30.08,South,180,9.1,18.8,47,0.00,,,0.00,WUHU216TE923,2013-01-21 07:39:00,
2013-01-20 23:44:00,32.9,14.8,30.07,SW,225,9.9,14.5,47,0.00,,,0.00,WUHU216TE923,2013-01-21 07:44:00,
2013-01-20 23:49:00,32.9,14.8,30.07,SW,225,10.0,12.7,47,0.00,,,0.00,WUHU216TE923,2013-01-21 07:49:00,
2013-01-20 23:54:00,33.1,14.9,30.07,SW,225,9.7,14.0,47,0.00,,,0.00,WUHU216TE923,2013-01-21 07:54:00,
2013-01-20 23:59:00,33.1,14.9,30.07,SW,225,9.7,14.0,47,0.00,,,0.00,WUHU216TE923,2013-01-21 07:59:00,